Weather History for Meknes, Morocco

Change the Weather History Date:

Saturday, October 6, 2012

  Actual Average Record
Temperature  
Mean Temperature 72 °F -  
Max Temperature 85 °F - - ()
Min Temperature 58 °F - - ()
Cooling Degree Days 6    
Growing Degree Days 22 (Base 50)    
Moisture  
Dew Point 57 °F    
Average Humidity 61    
Maximum Humidity 82    
Minimum Humidity 33    
Precipitation  
Precipitation 0.00 in - - ()
Sea Level Pressure  
Sea Level Pressure 30.13 in    
Wind  
Wind Speed 4 mph ()    
Max Wind Speed 8 mph    
Max Gust Speed -    
Visibility 5.4 miles    
Events      
T = Trace of Precipitation, MM = Missing Value Source: Averaged Metar Reports

Daily Weather History Graph

Daily Weather History Graph

Search for Another Location

Airport:

Trip Planner

Search our weather history database for the weather conditions in past years. The results will help you decide how hot, cold, wet, or windy it might be!

Date:

Astronomy

Oct. 06, 2012 Rise Set
Actual Time 6:20 AM WET 5:59 PM WET
Civil Twilight 5:55 AM WET 6:24 PM WET
Nautical Twilight 5:26 AM WET 6:53 PM WET
Astronomical Twilight 4:57 AM WET 7:22 PM WET
Moon 10:14 PM WET (10/6) 11:51 AM WET (10/6)
Length of Visible Light 12h 28m
Length of Day
11h 38m
Waning Gibbous, 67% of the Moon is Illuminated
Oct 6
Waning Gibbous
Oct 8
Last Quarter
Oct 15
New
Oct 22
First Quarter
Oct 29
Full

Hourly Weather History & Observations

Time (WET) Temp. Heat Index Dew Point Humidity Pressure Visibility Wind Dir Wind Speed Gust Speed Precip Events Conditions
12:00 AM 63 °F - 56 °F 70% 30.12 in 5 mi West 2.3 mph - -   Scattered Clouds
12:00 AM 62.6 °F - 55.4 °F 77% 30.15 in 5.0 mi West 2.3 mph - N/A   Unknown
1:00 AM 62.6 °F - 55.4 °F 77% 30.15 in 5.0 mi SSE 3.5 mph - N/A   Unknown
2:00 AM 62.6 °F - 57.2 °F 82% 30.12 in 5.0 mi SE 3.5 mph - N/A   Clear
3:00 AM 63 °F - 55 °F 69% 30.08 in 5 mi ESE 6.9 mph - -   Scattered Clouds
3:00 AM 62.6 °F - 55.4 °F 77% 30.12 in 5.0 mi ESE 6.9 mph - N/A   Unknown
5:00 AM 60.8 °F - 53.6 °F 77% 30.12 in 5.0 mi East 4.6 mph - N/A   Unknown
6:00 AM 58 °F - 53 °F 78% 30.12 in 5 mi Calm Calm - -   Scattered Clouds
6:00 AM 59.0 °F - 53.6 °F 82% 30.12 in 5.0 mi North 1.2 mph - N/A   Unknown
7:00 AM 62.6 °F - 55.4 °F 77% 30.15 in 5.0 mi SE 5.8 mph - N/A   Unknown
8:00 AM 66.2 °F - 55.4 °F 68% 30.15 in 5.0 mi ESE 6.9 mph - N/A   Unknown
9:00 AM 72 °F - 58 °F 53% 30.09 in 5 mi NE 3.5 mph - -  
9:00 AM 73.4 °F - 59.0 °F 61% 30.15 in - NE 3.5 mph - N/A   Clear
10:00 AM 75.2 °F - 59.0 °F 57% 30.15 in 5.0 mi North 4.6 mph - N/A   Clear
11:00 AM 80.6 °F 81.1 °F 59.0 °F 48% 30.15 in 5.0 mi NNE 5.8 mph - N/A   Partly Cloudy
12:00 PM 79 °F - 59 °F 40% 30.05 in 6 mi NNW 5.8 mph - -   Scattered Clouds
12:00 PM 78.8 °F - 59.0 °F 51% 30.15 in 5.0 mi NNW 5.8 mph - N/A   Partly Cloudy
1:00 PM 80.6 °F 81.1 °F 59.0 °F 48% 30.12 in 5.0 mi NW 3.5 mph - N/A   Partly Cloudy
2:00 PM 82.4 °F 82.5 °F 59.0 °F 45% 30.12 in 6.2 mi North 3.5 mph - N/A   Partly Cloudy
3:00 PM 83 °F - 59 °F 33% 30.01 in 6 mi WNW 5.8 mph - -   Scattered Clouds
3:00 PM 82.4 °F 82.5 °F 59.0 °F 45% 30.12 in 6.2 mi WNW 5.8 mph - N/A   Partly Cloudy
4:00 PM 84.2 °F 83.8 °F 59.0 °F 42% 30.12 in 6.2 mi NW 6.9 mph - N/A   Partly Cloudy
5:00 PM 80.6 °F 81.1 °F 59.0 °F 48% 30.15 in 6.2 mi NW 8.1 mph - N/A   Partly Cloudy
6:00 PM 77 °F - 58 °F 41% 30.07 in 6 mi NW 6.9 mph - -   Scattered Clouds
6:00 PM 77.0 °F - 57.2 °F 50% 30.18 in 6.2 mi NW 6.9 mph - N/A   Scattered Clouds
7:00 PM 73.4 °F - 59.0 °F 61% 30.18 in - WNW 6.9 mph - N/A   Clear
8:00 PM 71.6 °F - 59.0 °F 64% 30.18 in - NW 3.5 mph - N/A   Clear
9:00 PM 68 °F - 58 °F 61% 30.14 in 6 mi SE 2.3 mph - -   Clear
9:00 PM 68.0 °F - 59.0 °F 73% 30.21 in - SE 2.3 mph - N/A   Clear
10:00 PM 68.0 °F - 57.2 °F 68% 30.18 in - Calm Calm - N/A   Clear
11:00 PM 68.0 °F - 57.2 °F 68% 30.18 in - SE 5.8 mph - N/A   Clear